Погода в Кадуне

Нигерия     10°32′31″N   7°17′36″E
темп.,
°C
ветер,
м/с
пор.,
м/с
влажн.,
%
обл.,
%
осадки,
мм/ч
давл.,
гПа
погр.,
м
14 апреля, ср
ср1401:00+22ююз231294 0.0 101221
04:00+20юз2247100 0.0 101113
07:00+21ююз267188 0.0 1013150
10:00+31юз33325 0.0 10131027
13:00+39всв241253 0.0 10093258
16:00+39всв13105 0.0 10054130
19:00+31сз221567 0.0 100612
22:00+28юз121797 0.0 101013
15 апреля, чт
чт1501:00+26ю3630100 0.0 101194
04:00+23ю3973100 0.0 1010294
07:00+22ю257671 0.0 1012127
10:00+31ююз334184 0.0 10121005
13:00+38в35155 0.0 10083511
16:00+39св24115 0.0 10044218
19:00+32с221535 0.0 100512
22:00+28вюв112356 0.0 100813
16 апреля, пт
пт1601:00+26зсз11315 0.0 100811
04:00+25ююв11345 0.0 100711
07:00+25юв224457 0.0 100934
10:00+34юз432916 0.0 10091388
13:00+41вюв13143 0.0 10063920
16:00+40св131242 0.0 10033859
19:00+32зюз232399 0.0 100348
22:00+29юз2235100 0.0 100719
17 апреля, сб
сб1701:00+24ююз3864100 0.0 1008214
04:00+22ююз2679100 0.0 1008151
07:00+23ююз258056 0.0 1010176
10:00+31ююз3344100 0.0 1010794
13:00+37ю2422100 0.0 10073026
16:00+39ссв131553 0.0 10043647
19:00+34зюз5928100 0.0 1005465
22:00+28ю3442100 0.0 100858
18 апреля, вс
вс1801:00+24ююз396721 0.0 1009201
04:00+23юз3981100 0.0 1010298
07:00+23юз398434 0.0 1010360
10:00+30юз3451100 0.0 1011966
13:00+39юз142054 0.0 10082902
16:00+39в3313100 0.0 10054001
19:00+32ссз221968 0.0 100614
22:00+29ююз223462 0.0 100831